This demonstration page uses our WeatherBlox Daily Observations layout. Learn more.

Hourly Observations for April 21, 2017

Temp ( °F °C ) Dew Point ( °F °C ) Humidity (%) Winds ( mph kmh ) Pressure ( in mb ) Visibility ( mi km ) Precip ( " mm )
12:15 am 00:15 Partly Cloudy 54 12.1 39 3.7 57 57 E 9 15 30.12 1020 10 16.0934 0 0
12:35 am 00:35 Mostly Cloudy 53 11.7 39 3.8 59 59 E 9 15 30.12 1020 10 16.0934 0 0
12:55 am 00:55 Mostly Cloudy 53 11.5 39 3.7 59 59 E 12 19 30.12 1020 10 16.0934 0 0
1:15 am 01:15 Partly Cloudy 52 11.3 39 3.7 60 60 E 12 19 30.12 1020 10 16.0934 0 0
1:35 am 01:35 Clear 51 10.8 39 3.7 62 62 E 13 20 30.12 1020 10 16.0934 0 0
1:55 am 01:55 Clear 51 10.5 39 4 64 64 E 16 26 30.12 1020 10 16.0934 0 0
2:15 am 02:15 Clear 50 10 39 4.1 67 67 ENE 16 26 30.15 1021 10 16.0934 0 0
2:35 am 02:35 Partly Cloudy 49 9.5 40 4.5 71 71 ENE 16 26 30.12 1020 10 16.0934 0 0
2:55 am 02:55 Partly Cloudy 48 8.9 40 4.3 73 73 E 15 24 30.15 1021 10 16.0934 0 0
3:15 am 03:15 Partly Cloudy 47 8.6 40 4.5 76 76 E 14 22 30.15 1021 10 16.0934 0 0
3:35 am 03:35 Clear 47 8.3 40 4.2 76 76 E 15 24 30.15 1021 10 16.0934 0 0
3:55 am 03:55 Clear 46 8 40 4.2 77 77 E 16 26 30.15 1021 10 16.0934 0 0
4:15 am 04:15 Partly Cloudy 46 7.8 39 4.1 78 78 E 13 20 30.15 1021 10 16.0934 0 0
4:35 am 04:35 Cloudy 46 7.6 39 3.7 77 77 E 13 20 30.15 1021 10 16.0934 0 0
4:55 am 04:55 Cloudy 46 7.5 38 3.2 74 74 E 12 19 30.15 1021 10 16.0934 0 0
5:15 am 05:15 Cloudy 46 7.5 37 3 73 73 ESE 10 17 30.15 1021 10 16.0934 0 0
5:35 am 05:35 Cloudy with Light Drizzle 46 7.6 37 3 73 73 SE 9 15 30.15 1021 10 16.0934 0 0
5:55 am 05:55 Cloudy 45 7.2 38 3.1 75 75 ESE 9 15 30.15 1021 10 16.0934 0 0
6:15 am 06:15 Cloudy with Light Rain 45 7.2 37 3 75 75 ESE 10 17 30.15 1021 10 16.0934 0 0
6:35 am 06:35 Cloudy 44 6.8 37 2.7 75 75 ESE 10 17 30.18 1022 10 16.0934 0 0
6:55 am 06:55 Mostly Cloudy 44 6.5 37 2.5 76 76 E 12 19 30.09 1019 10 16.0934 0 0
7:15 am 07:15 Partly Cloudy 44 6.5 36 2.1 74 74 E 8 13 30.15 1021 10 16.0934 0 0
7:35 am 07:35 Mostly Cloudy 45 7 36 2.1 71 71 E 8 13 30.12 1020 10 16.0934 0 0
7:55 am 07:55 Cloudy 45 7 36 2 71 71 E 10 17 30.12 1020 10 16.0934 0 0
8:15 am 08:15 Cloudy 45 7.3 35 1.9 69 69 E 12 19 30.12 1020 10 16.0934 0 0
8:35 am 08:35 Cloudy 45 7.3 35 1.5 67 67 E 15 24 30.12 1020 10 16.0934 0 0
8:55 am 08:55 Cloudy 46 7.7 35 1.6 66 66 ESE 10 17 30.15 1021 10 16.0934 0 0
9:15 am 09:15 Mostly Cloudy 46 8 34 1.2 63 63 E 15 24 30.15 1021 10 16.0934 0 0
9:35 am 09:35 Sunny 47 8.3 35 1.5 63 63 E 13 20 30.12 1020 10 16.0934 0 0
9:55 am 09:55 Partly Cloudy 48 9 35 1.7 61 61 E 20 31 30.12 1020 10 16.0934 0 0
10:15 am 10:15 Sunny 49 9.2 35 1.7 60 60 E 23 37 30.12 1020 10 16.0934 0 0
10:35 am 10:35 Partly Cloudy 49 9.3 35 1.7 59 59 E 17 28 30.12 1020 10 16.0934 0 0
10:55 am 10:55 Mostly Cloudy 49 9.7 35 1.8 58 58 E 18 30 30.12 1020 10 16.0934 0 0
11:15 am 11:15 Cloudy 51 10.3 35 1.7 56 56 E 18 30 30.15 1021 10 16.0934 0 0
11:35 am 11:35 Cloudy 51 10.3 35 1.9 56 56 ESE 17 28 30.15 1021 10 16.0934 0 0
11:55 am 11:55 Cloudy 51 10.8 35 1.7 54 54 E 16 26 30.12 1020 10 16.0934 0 0
12:15 pm 12:15 Cloudy 51 10.8 35 1.9 54 54 E 16 26 30.12 1020 10 16.0934 0 0
12:35 pm 12:35 Cloudy 51 10.8 36 2 55 55 E 15 24 30.12 1020 10 16.0934 0 0
12:55 pm 12:55 Cloudy 53 11.7 35 1.7 51 51 E 16 26 30.09 1019 10 16.0934 0 0
1:15 pm 13:15 Cloudy 55 12.6 35 1.7 48 48 ENE 17 28 30.09 1019 10 16.0934 0 0
1:35 pm 13:35 Cloudy 54 12 35 1.8 50 50 ENE 15 24 30.09 1019 10 16.0934 0 0
1:55 pm 13:55 Cloudy 53 11.4 35 1.6 51 51 E 15 24 30.09 1019 10 16.0934 0 0
2:15 pm 14:15 Cloudy 54 12.2 35 1.9 50 50 ENE 18 30 30.09 1019 10 16.0934 0 0
2:35 pm 14:35 Cloudy 54 12.1 35 1.7 49 49 ENE 17 28 30.09 1019 10 16.0934 0 0
2:55 pm 14:55 Cloudy 54 12 35 1.9 50 50 NE 15 24 30.09 1019 10 16.0934 0 0
3:15 pm 15:15 Cloudy 55 12.6 35 1.5 47 47 ENE 16 26 30.09 1019 10 16.0934 0 0
3:35 pm 15:35 Cloudy 55 13 35 1.7 46 46 NE 15 24 30.09 1019 10 16.0934 0 0
3:55 pm 15:55 Cloudy 55 13 35 1.4 45 45 ENE 18 30 30.09 1019 10 16.0934 0 0
4:15 pm 16:15 Cloudy 55 12.6 34 1.3 46 46 NE 17 28 30.09 1019 10 16.0934 0 0
4:35 pm 16:35 Cloudy 55 12.7 34 1.1 45 45 NE 14 22 30.09 1019 10 16.0934 0 0
4:55 pm 16:55 Cloudy 55 13 34 1.1 45 45 ENE 10 17 30.09 1019 10 16.0934 0 0
5:15 pm 17:15 Cloudy 55 13 33 0.3 42 42 ENE 15 24 30.09 1019 10 16.0934 0 0
5:35 pm 17:35 Mostly Cloudy 55 12.8 31 -0.8 39 39 E 12 19 30.09 1019 10 16.0934 0 0
5:55 pm 17:55 Mostly Cloudy 55 12.9 30 -0.9 39 39 E 13 20 30.12 1020 10 16.0934 0 0
6:15 pm 18:15 Mostly Cloudy 56 13.6 30 -0.9 37 37 ENE 17 28 30.12 1020 10 16.0934 0 0
6:35 pm 18:35 Cloudy 55 13 29 -1.4 37 37 E 17 28 30.12 1020 10 16.0934 0 0
6:55 pm 18:55 Cloudy 55 12.5 29 -1.6 38 38 ENE 17 28 30.12 1020 10 16.0934 0 0
7:15 pm 19:15 Mostly Cloudy 54 12.1 30 -0.9 41 41 E 15 24 30.12 1020 10 16.0934 0 0
7:35 pm 19:35 Sunny 53 11.7 29 -1.6 40 40 E 15 24 30.12 1020 10 16.0934 0 0
7:55 pm 19:55 Sunny 52 11.2 30 -1.1 43 43 E 12 19 30.12 1020 10 16.0934 0 0
8:15 pm 20:15 Sunny 51 10.7 31 -0.5 46 46 E 15 24 30.12 1020 10 16.0934 0 0
8:35 pm 20:35 Partly Cloudy 50 10 32 0 50 50 E 10 17 30.15 1021 10 16.0934 0 0
8:55 pm 20:55 Partly Cloudy 49 9.3 32 0 53 53 E 9 15 30.15 1021 10 16.0934 0 0
9:15 pm 21:15 Clear 47 8.6 32 0 55 55 E 7 11 30.15 1021 10 16.0934 0 0
9:35 pm 21:35 Mostly Cloudy 45 7.2 32 0 61 61 NE 5 7 30.21 1023 10 16.0934 0 0
9:55 pm 21:55 Cloudy 48 8.8 33 0.8 58 58 NE 8 13 30.18 1022 10 16.0934 0 0
10:15 pm 22:15 Partly Cloudy 47 8.5 34 1.2 60 60 ENE 7 11 30.18 1022 10 16.0934 0 0
10:35 pm 22:35 Clear 46 7.9 34 1.3 63 63 ENE 7 11 30.21 1023 10 16.0934 0 0
10:55 pm 22:55 Clear 46 7.6 35 1.5 66 66 NE 8 13 30.24 1024 10 16.0934 0 0
11:15 pm 23:15 Clear 45 7.2 35 1.5 67 67 NE 7 11 30.24 1024 10 16.0934 0 0
11:35 pm 23:35 Clear 45 7 35 1.5 68 68 NNE 6 9 30.24 1024 10 16.0934 0 0
11:55 pm 23:55 Clear 45 7 35 1.5 68 68 NNE 6 9 30.24 1024 10 16.0934 0 0

Powered by AerisWeather